{"data":{"norad_id":66326,"intl_designator":"2025-253H","name":"STARLINK-35479","alt_names":[],"object_type":"PAYLOAD","status":"ACTIVE","operator":null,"country":"US","launch_date":"2025-11-06","launch_site_code":"AFETR","launch_vehicle":null,"mission":null,"orbit_class":"UNKNOWN","rcs_meters":null,"size_class":null,"mass_kg":null,"dimensions":null,"purposes":["comms"],"wikipedia_slug":null,"has_3d_model":false,"image_url":null,"decayed_at":null,"tle_current":{"epoch":"2026-09-20T05:06:34.517664Z","epoch_age_seconds":121497,"freshness":"FRESH","line1":"1 66326U 25253H   26263.21289951  .00008135  00000+0  30479-3 0  9998","line2":"2 66326  43.0021 193.9977 0001366 279.1665  80.9032 15.27582089 49992","mean_motion":15.27582089,"eccentricity":0.0001366,"inclination_deg":43.0021,"raan_deg":193.9977,"arg_perigee_deg":279.1665,"mean_anomaly_deg":80.9032,"bstar":0.00030479,"rev_number":4999,"period_min":94.266619801929,"perigee_km":482.10560366301,"apogee_km":483.98007799552,"semimajor_km":6861.1798408293,"source":"CELESTRAK","updated_at":"2026-09-21T09:00:35.874178Z"}}}